TimeCDT,TemperatureF,Dew PointF,Humidity,Sea Level PressureIn,VisibilityMPH,Wind Direction,Wind SpeedMPH,Gust SpeedMPH,PrecipitationIn,Events,Conditions,WindDirDegrees,DateUTC
12:53 AM,30.0,28.0,92,30.39,10.0,NNW,5.8,-,N/A,,Clear,330,2012-10-07 05:53:00
1:53 AM,30.0,28.0,92,30.40,10.0,Calm,Calm,-,N/A,,Clear,0,2012-10-07 06:53:00
2:53 AM,26.1,24.1,92,30.40,9.0,NW,6.9,-,N/A,,Clear,310,2012-10-07 07:53:00
3:53 AM,26.1,24.1,92,30.39,9.0,WSW,9.2,-,N/A,,Clear,250,2012-10-07 08:53:00
4:53 AM,26.1,24.1,92,30.37,7.0,West,5.8,-,N/A,,Clear,280,2012-10-07 09:53:00
5:53 AM,24.1,21.9,91,30.37,9.0,WSW,5.8,-,N/A,,Clear,240,2012-10-07 10:53:00
6:53 AM,23.0,21.9,96,30.38,8.0,SSW,5.8,-,N/A,,Clear,210,2012-10-07 11:53:00
7:53 AM,25.0,23.0,92,30.37,5.0,Calm,Calm,-,N/A,,Clear,0,2012-10-07 12:53:00
8:53 AM,30.9,28.9,92,30.36,7.0,Calm,Calm,-,N/A,,Clear,0,2012-10-07 13:53:00
9:53 AM,37.0,35.1,93,30.36,9.0,SW,8.1,-,N/A,,Clear,230,2012-10-07 14:53:00
10:53 AM,41.0,34.0,76,30.35,10.0,WSW,9.2,-,N/A,,Clear,240,2012-10-07 15:53:00
11:53 AM,45.0,33.1,63,30.33,10.0,SW,10.4,-,N/A,,Scattered Clouds,230,2012-10-07 16:53:00
12:42 PM,46.4,32.0,57,30.26,10.0,SSW,6.9,-,N/A,,Mostly Cloudy,210,2012-10-07 17:42:00
12:53 PM,48.0,30.9,52,30.30,10.0,SW,12.7,-,N/A,,Mostly Cloudy,220,2012-10-07 17:53:00
1:53 PM,48.9,30.9,50,30.26,10.0,WSW,10.4,-,N/A,,Overcast,240,2012-10-07 18:53:00
2:53 PM,51.1,32.0,48,30.22,10.0,SSW,12.7,18.4,N/A,,Overcast,200,2012-10-07 19:53:00
3:53 PM,51.1,32.0,48,30.20,10.0,SSW,15.0,-,N/A,,Overcast,210,2012-10-07 20:53:00
4:53 PM,51.1,32.0,48,30.18,10.0,SSW,17.3,24.2,N/A,,Mostly Cloudy,210,2012-10-07 21:53:00
5:53 PM,50.0,32.0,50,30.16,10.0,SW,13.8,-,N/A,,Overcast,230,2012-10-07 22:53:00
6:53 PM,50.0,33.1,52,30.15,10.0,SW,13.8,-,N/A,,Overcast,220,2012-10-07 23:53:00
7:53 PM,43.0,32.0,65,30.17,10.0,SW,6.9,-,N/A,,Clear,220,2012-10-08 00:53:00
8:53 PM,39.0,30.9,73,30.16,10.0,South,8.1,-,N/A,,Clear,190,2012-10-08 01:53:00
9:53 PM,37.9,30.9,76,30.14,10.0,South,10.4,-,N/A,,Clear,180,2012-10-08 02:53:00
10:53 PM,37.0,30.0,76,30.15,10.0,SSW,10.4,-,N/A,,Clear,200,2012-10-08 03:53:00
11:53 PM,39.0,30.0,70,30.13,10.0,SSW,10.4,-,N/A,,Clear,200,2012-10-08 04:53:00